Time,TemperatureF,DewpointF,PressureIn,WindDirection,WindDirectionDegrees,WindSpeedMPH,WindSpeedGustMPH,Humidity,HourlyPrecipIn,Conditions,Clouds,dailyrainin,SoftwareType,DateUTC
2013-06-24 00:09:00,58.5,44.0,29.60,NNE,17,3.0,5.0,58,0.00,,,0.00,weatherlink.com 1.10,2013-06-24 06:09:00,
2013-06-24 00:24:00,57.7,43.0,29.60,NNE,17,4.0,5.0,59,0.00,,,0.00,weatherlink.com 1.10,2013-06-24 06:24:00,
2013-06-24 00:39:00,57.8,43.0,29.60,NNE,17,0.0,1.0,58,0.00,,,0.00,weatherlink.com 1.10,2013-06-24 06:39:00,
2013-06-24 01:24:00,56.4,42.0,29.58,NNE,17,4.0,5.0,59,0.00,,,0.00,weatherlink.com 1.10,2013-06-24 07:24:00,
2013-06-24 01:39:00,55.2,41.0,29.58,NNE,17,3.0,3.0,59,0.00,,,0.00,weatherlink.com 1.10,2013-06-24 07:39:00,
2013-06-24 01:54:00,55.5,41.0,29.58,NNE,17,0.0,0.0,59,0.00,,,0.00,weatherlink.com 1.10,2013-06-24 07:54:00,
2013-06-24 02:09:00,55.6,42.0,29.57,NNE,17,0.0,0.0,60,0.00,,,0.00,weatherlink.com 1.10,2013-06-24 08:09:00,
2013-06-24 02:24:00,55.3,42.0,29.57,NNE,17,0.0,3.0,62,0.00,,,0.00,weatherlink.com 1.10,2013-06-24 08:24:00,
2013-06-24 02:39:00,53.9,42.0,29.57,NNE,17,4.0,4.0,65,0.00,,,0.00,weatherlink.com 1.10,2013-06-24 08:39:00,
2013-06-24 02:54:00,52.7,42.0,29.56,NNE,17,4.0,6.0,67,0.00,,,0.00,weatherlink.com 1.10,2013-06-24 08:54:00,
2013-06-24 03:09:00,53.6,42.0,29.56,NNE,17,0.0,7.0,66,0.00,,,0.00,weatherlink.com 1.10,2013-06-24 09:09:00,
2013-06-24 03:24:00,53.9,42.0,29.56,NNE,17,3.0,4.0,65,0.00,,,0.00,weatherlink.com 1.10,2013-06-24 09:24:00,
2013-06-24 03:39:00,54.2,42.0,29.56,NNE,17,1.0,3.0,64,0.00,,,0.00,weatherlink.com 1.10,2013-06-24 09:39:00,
2013-06-24 03:54:00,53.9,42.0,29.56,NNE,17,2.0,3.0,65,0.00,,,0.00,weatherlink.com 1.10,2013-06-24 09:54:00,
2013-06-24 04:09:00,54.9,42.0,29.55,NNE,17,5.0,5.0,63,0.00,,,0.00,weatherlink.com 1.10,2013-06-24 10:09:00,
2013-06-24 04:24:00,54.2,43.0,29.55,NNE,17,0.0,4.0,65,0.00,,,0.00,weatherlink.com 1.10,2013-06-24 10:24:00,
2013-06-24 04:39:00,52.7,42.0,29.56,NNE,17,0.0,3.0,67,0.00,,,0.00,weatherlink.com 1.10,2013-06-24 10:39:00,
2013-06-24 05:09:00,51.9,42.0,29.55,NNE,17,0.0,3.0,68,0.00,,,0.00,weatherlink.com 1.10,2013-06-24 11:09:00,
2013-06-24 05:24:00,52.4,42.0,29.55,NNE,17,2.0,3.0,68,0.00,,,0.00,weatherlink.com 1.10,2013-06-24 11:24:00,
2013-06-24 05:39:00,52.2,42.0,29.55,NNE,17,0.0,0.0,69,0.00,,,0.00,weatherlink.com 1.10,2013-06-24 11:39:00,
2013-06-24 05:54:00,50.6,41.0,29.55,NNE,17,2.0,3.0,70,0.00,,,0.00,weatherlink.com 1.10,2013-06-24 11:54:00,
2013-06-24 06:09:00,50.8,42.0,29.55,NNE,17,0.0,0.0,72,0.00,,,0.00,weatherlink.com 1.10,2013-06-24 12:09:00,
2013-06-24 06:24:00,52.8,44.0,29.55,NNE,17,0.0,1.0,71,0.00,,,0.00,weatherlink.com 1.10,2013-06-24 12:24:00,
2013-06-24 06:39:00,55.8,44.0,29.55,NNE,17,0.0,4.0,64,0.00,,,0.00,weatherlink.com 1.10,2013-06-24 12:39:00,
2013-06-24 07:09:00,57.8,44.0,29.55,NNE,17,3.0,5.0,60,0.00,,,0.00,weatherlink.com 1.10,2013-06-24 13:09:00,
2013-06-24 07:54:00,61.0,44.0,29.55,NNE,17,3.0,4.0,53,0.00,,,0.00,weatherlink.com 1.10,2013-06-24 13:54:00,
2013-06-24 08:25:00,60.6,43.0,29.55,NNE,17,4.0,5.0,53,0.00,,,0.00,weatherlink.com 1.10,2013-06-24 14:25:00,
2013-06-24 08:40:00,61.4,42.0,29.55,NNE,17,0.0,5.0,50,0.00,,,0.00,weatherlink.com 1.10,2013-06-24 14:40:00,
2013-06-24 09:10:00,63.7,43.0,29.55,NNE,17,0.0,2.0,48,0.00,,,0.00,weatherlink.com 1.10,2013-06-24 15:10:00,
2013-06-24 09:25:00,64.7,44.0,29.55,NNE,17,0.0,3.0,48,0.00,,,0.00,weatherlink.com 1.10,2013-06-24 15:25:00,
2013-06-24 09:40:00,65.7,44.0,29.54,NNE,17,0.0,4.0,46,0.00,,,0.00,weatherlink.com 1.10,2013-06-24 15:40:00,
2013-06-24 10:25:00,69.9,42.0,29.52,NNE,17,0.0,3.0,36,0.00,,,0.00,weatherlink.com 1.10,2013-06-24 16:25:00,
2013-06-24 10:40:00,71.5,42.0,29.52,NNE,17,0.0,7.0,35,0.00,,,0.00,weatherlink.com 1.10,2013-06-24 16:40:00,
2013-06-24 10:55:00,72.0,42.0,29.52,NNE,17,1.0,7.0,34,0.00,,,0.00,weatherlink.com 1.10,2013-06-24 16:55:00,
2013-06-24 11:10:00,72.4,42.0,29.52,NNE,17,2.0,6.0,33,0.00,,,0.00,weatherlink.com 1.10,2013-06-24 17:10:00,
2013-06-24 11:40:00,74.6,40.0,29.50,NNE,17,4.0,6.0,29,0.00,,,0.00,weatherlink.com 1.10,2013-06-24 17:40:00,
2013-06-24 11:55:00,75.7,40.0,29.50,NNE,17,2.0,6.0,28,0.00,,,0.00,weatherlink.com 1.10,2013-06-24 17:55:00,
2013-06-24 12:10:00,77.0,40.0,29.48,NE,44,0.0,8.0,27,0.00,,,0.00,weatherlink.com 1.10,2013-06-24 18:10:00,
2013-06-24 12:25:00,78.0,39.0,29.48,ENE,78,3.0,9.0,25,0.00,,,0.00,weatherlink.com 1.10,2013-06-24 18:25:00,
2013-06-24 12:40:00,78.7,39.0,29.47,ENE,78,2.0,7.0,24,0.00,,,0.00,weatherlink.com 1.10,2013-06-24 18:40:00,
2013-06-24 12:55:00,79.3,38.0,29.46,ENE,78,0.0,7.0,23,0.00,,,0.00,weatherlink.com 1.10,2013-06-24 18:55:00,
2013-06-24 13:10:00,81.0,40.0,29.46,WSW,253,8.0,17.0,23,0.00,,,0.00,weatherlink.com 1.10,2013-06-24 19:10:00,
2013-06-24 13:40:00,81.3,40.0,29.46,East,97,0.0,14.0,23,0.00,,,0.00,weatherlink.com 1.10,2013-06-24 19:40:00,
2013-06-24 13:55:00,80.7,42.0,29.46,ESE,112,11.0,14.0,25,0.00,,,0.00,weatherlink.com 1.10,2013-06-24 19:55:00,
2013-06-24 14:10:00,79.5,43.0,29.48,SE,140,9.0,11.0,27,0.00,,,0.00,weatherlink.com 1.10,2013-06-24 20:10:00,
2013-06-24 14:25:00,73.5,47.0,29.52,South,186,19.0,35.0,39,0.00,,,0.00,weatherlink.com 1.10,2013-06-24 20:25:00,
2013-06-24 14:40:00,73.2,48.0,29.48,WNW,301,5.0,8.0,41,0.00,,,0.00,weatherlink.com 1.10,2013-06-24 20:40:00,
2013-06-24 14:55:00,75.9,46.0,29.48,NNE,25,7.0,9.0,35,0.00,,,0.00,weatherlink.com 1.10,2013-06-24 20:55:00,
2013-06-24 15:10:00,78.5,43.0,29.47,ENE,58,4.0,7.0,28,0.00,,,0.00,weatherlink.com 1.10,2013-06-24 21:10:00,
2013-06-24 15:40:00,79.4,41.0,29.47,ENE,58,0.0,5.0,25,0.00,,,0.00,weatherlink.com 1.10,2013-06-24 21:40:00,
2013-06-24 15:55:00,79.9,40.0,29.47,ENE,58,0.0,7.0,24,0.00,,,0.00,weatherlink.com 1.10,2013-06-24 21:55:00,
2013-06-24 16:10:00,81.1,41.0,29.46,ENE,58,2.0,8.0,24,0.00,,,0.00,weatherlink.com 1.10,2013-06-24 22:10:00,
2013-06-24 16:25:00,82.1,41.0,29.45,North,360,2.0,10.0,23,0.00,,,0.00,weatherlink.com 1.10,2013-06-24 22:25:00,
2013-06-24 16:55:00,82.1,40.0,29.44,WNW,283,1.0,11.0,22,0.00,,,0.00,weatherlink.com 1.10,2013-06-24 22:55:00,
2013-06-24 17:10:00,82.1,41.0,29.43,West,281,5.0,12.0,23,0.00,,,0.00,weatherlink.com 1.10,2013-06-24 23:10:00,
2013-06-24 17:26:00,82.3,39.0,29.42,West,281,1.0,8.0,21,0.00,,,0.00,weatherlink.com 1.10,2013-06-24 23:26:00,
2013-06-24 17:41:00,83.3,39.0,29.41,West,281,1.0,3.0,21,0.00,,,0.00,weatherlink.com 1.10,2013-06-24 23:41:00,
2013-06-24 17:56:00,82.7,39.0,29.41,West,281,0.0,6.0,21,0.00,,,0.00,weatherlink.com 1.10,2013-06-24 23:56:00,
2013-06-24 18:41:00,81.8,41.0,29.40,West,281,2.0,4.0,23,0.00,,,0.00,weatherlink.com 1.10,2013-06-25 00:41:00,
2013-06-24 18:56:00,82.3,40.0,29.40,West,281,4.0,5.0,22,0.00,,,0.00,weatherlink.com 1.10,2013-06-25 00:56:00,
2013-06-24 19:11:00,82.3,39.0,29.40,West,281,1.0,5.0,21,0.00,,,0.00,weatherlink.com 1.10,2013-06-25 01:11:00,
2013-06-24 19:26:00,82.6,38.0,29.40,West,275,4.0,11.0,20,0.00,,,0.00,weatherlink.com 1.10,2013-06-25 01:26:00,
2013-06-24 19:56:00,82.0,38.0,29.40,WNW,290,7.0,13.0,21,0.00,,,0.00,weatherlink.com 1.10,2013-06-25 01:56:00,
2013-06-24 20:11:00,81.6,38.0,29.40,WNW,290,5.0,16.0,21,0.00,,,0.00,weatherlink.com 1.10,2013-06-25 02:11:00,
2013-06-24 20:26:00,80.7,41.0,29.41,West,268,0.0,8.0,24,0.00,,,0.00,weatherlink.com 1.10,2013-06-25 02:26:00,
2013-06-24 20:41:00,79.4,43.0,29.41,West,268,2.0,7.0,27,0.00,,,0.00,weatherlink.com 1.10,2013-06-25 02:41:00,
2013-06-24 20:56:00,78.2,45.0,29.42,WNW,286,6.0,8.0,31,0.00,,,0.00,weatherlink.com 1.10,2013-06-25 02:56:00,
2013-06-24 21:11:00,77.7,45.0,29.43,WNW,286,4.0,6.0,31,0.00,,,0.00,weatherlink.com 1.10,2013-06-25 03:11:00,
2013-06-24 21:26:00,78.8,39.0,29.44,West,261,11.0,13.0,24,0.00,,,0.00,weatherlink.com 1.10,2013-06-25 03:26:00,
2013-06-24 21:41:00,77.8,40.0,29.46,West,266,16.0,23.0,26,0.00,,,0.00,weatherlink.com 1.10,2013-06-25 03:41:00,
2013-06-24 21:56:00,75.5,41.0,29.45,WNW,300,6.0,15.0,29,0.00,,,0.00,weatherlink.com 1.10,2013-06-25 03:56:00,
2013-06-24 22:11:00,75.3,42.0,29.45,NW,308,6.0,11.0,30,0.00,,,0.00,weatherlink.com 1.10,2013-06-25 04:11:00,
2013-06-24 22:26:00,74.6,41.0,29.46,West,261,18.0,26.0,30,0.00,,,0.00,weatherlink.com 1.10,2013-06-25 04:26:00,
2013-06-24 22:41:00,73.5,42.0,29.46,WSW,257,13.0,28.0,32,0.00,,,0.00,weatherlink.com 1.10,2013-06-25 04:41:00,
2013-06-24 22:56:00,73.4,42.0,29.46,West,259,18.0,33.0,32,0.00,,,0.00,weatherlink.com 1.10,2013-06-25 04:56:00,
2013-06-24 23:11:00,73.2,42.0,29.47,West,272,20.0,29.0,32,0.00,,,0.00,weatherlink.com 1.10,2013-06-25 05:11:00,
2013-06-24 23:26:00,73.8,41.0,29.46,WSW,249,25.0,26.0,31,0.00,,,0.00,weatherlink.com 1.10,2013-06-25 05:26:00,
2013-06-24 23:41:00,73.3,42.0,29.47,WSW,256,19.0,24.0,32,0.00,,,0.00,weatherlink.com 1.10,2013-06-25 05:41:00,
2013-06-24 23:56:00,73.4,41.0,29.47,WSW,250,12.0,19.0,31,0.00,,,0.00,weatherlink.com 1.10,2013-06-25 05:56:00,